FW0299 Weather Reports


time (UTC)temp
C
wind
direction
speed
KPH
gust
KPH
rain 1hr
cm
rain 24hr
cm
rain mn
cm
humidity
%
barometer
mb
20260505011351 12 319 6.4 17.7 0.00 0.05 0.05 81 1012.0
20260505010853 13 22 6.4 17.7 0.00 0.05 0.05 81 1012.1
20260505005845 12 235 4.8 14.5 0.00 0.05 0.05 81 1012.1
20260505005343 12 74 6.4 14.5 0.00 0.05 0.05 81 1012.2
20260505004840 13 28 6.4 19.3 0.00 0.05 0.05 81 1012.0
20260505004341 13 51 6.4 19.3 0.00 0.05 0.05 80 1012.1
20260505003841 13 70 6.4 19.3 0.00 0.05 0.05 81 1012.0
20260505003341 13 198 6.4 19.3 0.00 0.05 0.05 81 1012.0
20260505002841 13 178 6.4 17.7 0.00 0.05 0.05 81 1012.0
20260505002341 13 115 6.4 17.7 0.00 0.05 0.05 81 1012.0
20260505001340 13 281 6.4 16.1 0.00 0.08 0.05 81 1011.7
20260505000841 13 56 6.4 16.1 0.00 0.08 0.05 82 1011.7
20260505000343 12 270 6.4 19.3 0.00 0.10 0.05 82 1011.5
20260504235339 13 63 6.4 17.7 0.00 0.10 0.05 81 1011.4
20260504234839 12 97 6.4 17.7 0.00 0.10 0.05 79 1011.5
20260504234339 11 35 6.4 17.7 0.03 0.10 0.05 74 1011.2
20260504234058 11 157 6.4 19.3 0.05 0.10 0.05 75 1011.4
20260504233602 11 113 6.4 19.3 0.05 0.10 0.05 77 1011.8
20260504232839 11 123 6.4 22.5 0.05 0.10 0.05 78 1011.8
20260504232609 11 273 6.4 22.5 0.05 0.10 0.05 80 1011.8
20260504231839 12 55 4.8 17.7 0.05 0.10 0.05 81 1011.7
20260504231338 12 128 4.8 14.5 0.05 0.10 0.05 81 1011.7
20260504230839 12 108 4.8 14.5 0.05 0.10 0.05 81 1011.7
20260504230605 12 207 4.8 16.1 0.05 0.10 0.05 80 1011.7
20260504225838 12 74 6.4 16.1 0.05 0.10 0.05 80 1011.7
20260504225339 12 79 6.4 14.5 0.05 0.10 0.05 81 1011.8
20260504224338 14 304 6.4 14.5 0.03 0.08 0.03 78 1012.1
20260504224103 15 53 4.8 16.1 0.00 0.05 0.00 74 1012.2
20260504223336 16 178 4.8 16.1 0.00 0.05 0.00 71 1012.2
20260504222836 16 9 4.8 12.9 0.00 0.05 0.00 68 1012.2
20260504222602 17 325 4.8 14.5 0.00 0.05 0.00 66 1012.2
20260504221833 17 19 4.8 14.5 0.00 0.05 0.00 64 1012.2
20260504221335 18 40 6.4 14.5 0.00 0.05 0.00 63 1012.3
20260504221051 18 304 4.8 14.5 0.00 0.05 0.00 65 1012.3
20260504220558 18 314 4.8 16.1 0.00 0.05 0.00 65 1012.2
20260504215833 17 69 4.8 16.1 0.00 0.05 0.00 64 1012.4
20260504215331 18 28 4.8 14.5 0.00 0.05 0.00 65 1012.5
20260504214829 17 19 6.4 16.1 0.00 0.05 0.00 66 1012.6
20260504214327 17 321 6.4 16.1 0.00 0.05 0.00 63 1012.6
20260504213827 17 53 6.4 16.1 0.00 0.05 0.00 66 1012.6
20260504213327 17 333 6.4 16.1 0.00 0.05 0.00 64 1012.7
20260504213054 17 192 6.4 16.1 0.00 0.05 0.00 64 1012.8
20260504212328 17 36 6.4 16.1 0.00 0.05 0.00 64 1012.7
20260504211827 17 344 6.4 17.7 0.00 0.05 0.00 66 1012.7
20260504211543 17 86 6.4 17.7 0.00 0.05 0.00 70 1012.7
20260504210325 17 14 6.4 19.3 0.00 0.05 0.00 63 1012.8
20260504205824 17 50 6.4 17.7 0.00 0.05 0.00 65 1012.7
20260504205540 17 265 8.0 17.7 0.00 0.05 0.00 66 1013.1
20260504204811 17 229 6.4 17.7 0.00 0.05 0.00 64 1013.2
20260504204306 17 290 4.8 17.7 0.00 0.05 0.00 66 1013.3
20260504203800 17 88 6.4 17.7 0.00 0.05 0.00 65 1013.2
20260504203254 17 234 6.4 17.7 0.00 0.05 0.00 68 1013.2
20260504203019 17 5 6.4 17.7 0.00 0.05 0.00 67 1013.3
20260504202242 17 76 6.4 17.7 0.00 0.05 0.00 65 1013.3
20260504201736 17 57 6.4 14.5 0.00 0.05 0.00 67 1013.4
20260504201453 17 223 6.4 16.1 0.00 0.05 0.00 66 1013.4
20260504200724 16 274 6.4 16.1 0.00 0.05 0.00 66 1013.4
20260504200218 16 79 6.4 17.7 0.00 0.05 0.00 70 1013.4
20260504195712 16 253 8.0 17.7 0.00 0.05 0.00 68 1013.4
20260504195206 16 11 6.4 16.1 0.00 0.05 0.00 68 1013.6
20260504194700 16 27 6.4 16.1 0.00 0.05 0.00 70 1013.6
20260504194154 16 33 6.4 16.1 0.00 0.05 0.00 68 1013.7
20260504193648 16 267 4.8 14.5 0.00 0.05 0.00 68 1013.7
20260504193142 16 25 6.4 16.1 0.00 0.05 0.00 69 1013.7
20260504192636 16 279 6.4 16.1 0.00 0.05 0.00 69 1013.9
20260504192129 16 109 6.4 14.5 0.00 0.05 0.00 69 1014.0
20260504191623 15 100 6.4 16.1 0.00 0.05 0.00 72 1014.0
20260504191118 15 76 6.4 16.1 0.00 0.05 0.00 71 1014.1
20260504190835 15 268 4.8 9.7 0.00 0.05 0.00 72 1014.2
20260504190106 15 48 4.8 12.9 0.00 0.05 0.00 73 1014.3
20260504185600 15 342 6.4 14.5 0.00 0.05 0.00 74 1014.3
20260504185054 15 313 6.4 14.5 0.00 0.05 0.00 74 1014.4
20260504184547 15 170 4.8 14.5 0.00 0.05 0.00 74 1014.5
20260504184042 14 309 4.8 16.1 0.00 0.05 0.00 75 1014.4
20260504183535 14 189 4.8 16.1 0.00 0.05 0.00 75 1014.5
20260504183029 14 21 6.4 16.1 0.00 0.05 0.00 77 1014.5
20260504182524 13 150 6.4 19.3 0.00 0.05 0.00 77 1014.6
20260504181511 13 86 6.4 14.5 0.00 0.05 0.00 78 1014.5
20260504181006 13 17 6.4 14.5 0.00 0.05 0.00 79 1014.5
20260504180500 13 5 6.4 16.1 0.00 0.05 0.00 81 1014.5
20260504175954 12 194 6.4 16.1 0.00 0.05 0.00 81 1014.6
20260504175448 12 125 4.8 14.5 0.00 0.05 0.00 81 1014.5
20260504174944 12 294 6.4 14.5 0.00 0.05 0.00 81 1014.6
20260504174444 12 84 4.8 14.5 0.00 0.05 0.00 82 1014.5
20260504173943 12 107 4.8 14.5 0.00 0.05 0.00 82 1014.4
20260504173442 12 177 4.8 14.5 0.00 0.05 0.00 82 1014.4
20260504172942 12 82 4.8 11.3 0.00 0.05 0.00 82 1014.5
20260504172703 11 92 4.8 14.5 0.00 0.05 0.00 82 1014.4
20260504171942 11 36 4.8 14.5 0.00 0.05 0.00 82 1014.5
20260504171440 11 111 4.8 11.3 0.00 0.05 0.00 80 1014.5
20260504170940 10 161 4.8 11.3 0.00 0.05 0.00 74 1014.4
20260504150935 9 43 3.2 12.9 0.00 0.05 0.00 28 1014.4
20260504150428 9 192 4.8 12.9 0.00 0.05 0.00 23 1014.4
20260504140903 9 76 1.6 9.7 0.00 0.05 0.00 17 1014.2
20260504140404 9 76 1.6 9.7 0.00 0.05 0.00 17 1014.1
20260504140132 9 190 1.6 9.7 0.00 0.05 0.00 17 1014.1
20260504130325 8 182 1.6 8.0 0.00 0.05 0.00 24 1013.6
20260504120213 8 223 0.0 0.0 0.00 0.05 0.00 57 1013.7
20260504110608 8 94 3.2 11.3 0.00 0.05 0.00 58 1013.6
20260504100521 9 333 3.2 11.3 0.00 0.05 0.00 80 1013.5
20260504081505 10 69 0.0 0.0 0.00 0.05 0.00 71 1013.9
20260504081006 10 69 0.0 0.0 0.00 0.05 0.00 71 1013.7
20260504080504 10 69 0.0 1.6 0.00 0.05 0.00 72 1013.9
20260504080229 10 69 0.0 3.2 0.00 0.05 0.00 73 1013.9
20260504060204 10 96 4.8 12.9 0.00 0.05 0.05 81 1013.9
20260504050436 10 355 4.8 12.9 0.00 0.05 0.05 80 1014.2
20260504045936 10 58 4.8 12.9 0.00 0.05 0.05 80 1014.2
20260504045433 10 75 4.8 19.3 0.00 0.05 0.05 80 1014.1
20260504044933 10 34 6.4 19.3 0.00 0.05 0.05 80 1014.2
20260504044430 10 26 8.0 17.7 0.00 0.05 0.05 80 1014.3
20260504043929 10 9 9.7 17.7 0.00 0.05 0.05 80 1014.5
20260504043429 10 346 8.0 17.7 0.00 0.05 0.05 80 1014.4
20260504042929 10 334 9.7 20.9 0.00 0.05 0.05 80 1014.6
20260504042429 11 338 9.7 30.6 0.00 0.05 0.05 80 1014.8
20260504041923 11 344 9.7 30.6 0.00 0.05 0.05 79 1014.9
20260504041418 11 348 9.7 17.7 0.00 0.05 0.05 79 1014.6
20260504040910 11 46 8.0 17.7 0.00 0.05 0.05 79 1014.5
20260504040404 11 32 6.4 17.7 0.00 0.05 0.05 79 1014.4
20260504035858 11 355 6.4 19.3 0.00 0.05 0.05 79 1014.3
20260504035352 11 5 6.4 19.3 0.00 0.05 0.05 79 1014.1
20260504035116 10 355 6.4 17.7 0.00 0.05 0.05 79 1013.9
20260504034341 10 0 8.0 19.3 0.00 0.05 0.05 80 1014.0
20260504033835 10 309 8.0 24.1 0.00 0.05 0.05 80 1013.6
20260504033328 10 40 8.0 24.1 0.00 0.05 0.05 80 1013.5
20260504032823 10 53 8.0 19.3 0.00 0.05 0.05 80 1013.3
20260504032317 10 19 8.0 19.3 0.00 0.05 0.05 80 1013.2
20260504031811 11 9 8.0 19.3 0.00 0.05 0.05 80 1013.2
20260504031305 11 15 8.0 19.3 0.00 0.05 0.05 81 1013.1
20260504030759 11 5 8.0 14.5 0.00 0.05 0.05 80 1013.2
20260504030252 11 17 6.4 14.5 0.00 0.05 0.05 80 1013.1
20260504025747 11 15 6.4 19.3 0.00 0.05 0.05 80 1013.3
20260504025241 11 40 8.0 19.3 0.00 0.05 0.05 80 1013.1
20260504024958 12 36 8.0 17.7 0.00 0.05 0.05 80 1013.1
20260504024229 12 54 8.0 24.1 0.00 0.05 0.05 79 1013.0
20260504023946 12 5 8.0 25.7 0.00 0.05 0.05 78 1013.0
20260504023217 13 57 8.0 25.7 0.00 0.05 0.05 77 1012.8
20260504022710 14 309 6.4 16.1 0.00 0.05 0.05 74 1012.5
20260504022205 15 355 6.4 14.5 0.00 0.05 0.05 72 1012.3
20260504021658 16 82 4.8 12.9 0.00 0.05 0.05 69 1012.1
20260504021153 16 321 1.6 12.9 0.00 0.05 0.05 65 1012.2
20260504020646 17 119 0.0 1.6 0.00 0.05 0.05 62 1012.2
20260504020402 17 119 1.6 9.7 0.00 0.05 0.05 60 1012.2
20260504015637 17 119 3.2 9.7 0.00 0.05 0.05 58 1012.1
20260504015131 18 119 3.2 8.0 0.00 0.05 0.05 58 1012.1
20260504014623 18 129 3.2 6.4 0.00 0.05 0.05 60 1012.2
20260504014116 18 130 1.6 6.4 0.00 0.05 0.05 58 1012.0
20260504013612 18 38 0.0 0.0 0.00 0.05 0.05 61 1012.1
20260504013106 18 323 0.0 0.0 0.00 0.05 0.05 63 1012.2
20260504012559 18 323 0.0 0.0 0.00 0.05 0.05 64 1012.2
20260504012053 18 323 0.0 0.0 0.00 0.05 0.05 52 1012.3